McCall, ID

2:40 AM MDT on May 27, 2017 (GMT -0600)
McCall

Weather History for KMYL - May, 2015

Change the Weather History Date:

Wednesday, May 27, 2015

  Actual Average Record
Temperature  
Mean Temperature 52 °F 48 °F  
Max Temperature 61 °F 62 °F 85 °F (1966)
Min Temperature 42 °F 35 °F 25 °F (1932)
Degree Days  
Heating Degree Days 13 17  
Month to date heating degree days 403 530  
Since 1 July heating degree days 7328 9165  
Cooling Degree Days 0 0  
Month to date cooling degree days 0 0  
Year to date cooling degree days 0 0  
Growing Degree Days 1 (Base 50)    
Moisture  
Dew Point 40 °F    
Average Humidity 66    
Maximum Humidity 89    
Minimum Humidity 43    
Precipitation  
Precipitation 0.01 in 0.07 in 0.96 in (1941)
Month to date precipitation 2.16 1.91  
Year to date precipitation 9.19 9.50  
Sea Level Pressure  
Sea Level Pressure 29.99 in    
Wind  
Wind Speed 5 mph (NW)    
Max Wind Speed 16 mph    
Max Gust Speed 20 mph    
Visibility 10 miles    
Events Rain , Thunderstorm    
T = Trace of Precipitation, MM = Missing Value Source: NWS Daily Summary

Daily Weather History Graph

Daily Weather History Graph

Search for Another Location

Airport or City:

Trip Planner

Search our weather history database for the weather conditions in past years. The results will help you decide how hot, cold, wet, or windy it might be!

Date:

Astronomy

May. 27, 2015 Rise Set
Actual Time 6:04 AM MDT 9:18 PM MDT
Civil Twilight 5:29 AM MDT 9:54 PM MDT
Nautical Twilight 4:42 AM MDT 10:41 PM MDT
Astronomical Twilight 3:46 AM MDT 11:38 PM MDT
Moon 3:25 PM MDT 3:05 AM MDT
Length of Visible Light 16h 25m
Length of Day
15h 14m
Waxing Gibbous, 69% of the Moon is Illuminated
May 27
Waxing Gibbous
Jun 2
Full
Jun 9
Last Quarter
Jun 16
New
Jun 24
First Quarter

Hourly Weather History & Observations

Time (MDT) Temp. Windchill Dew Point Humidity Pressure Visibility Wind Dir Wind Speed Gust Speed Precip Events Conditions
12:51 AM 51.1 °F - 39.0 °F 63% 29.94 in 10.0 mi North 8.1 mph - N/A   Mostly Cloudy
1:51 AM 48.0 °F - 37.9 °F 68% 29.94 in 10.0 mi North 10.4 mph - 0.00 in   Overcast
2:51 AM 48.0 °F - 37.9 °F 68% 29.93 in 10.0 mi North 6.9 mph - N/A   Mostly Cloudy
3:51 AM 45.0 °F 42.6 °F 37.9 °F 76% 29.94 in 10.0 mi NE 4.6 mph - N/A   Clear
4:51 AM 44.1 °F - 37.9 °F 79% 29.94 in 10.0 mi Calm Calm - N/A   Mostly Cloudy
5:51 AM 42.1 °F - 39.0 °F 89% 29.95 in 10.0 mi Calm Calm - N/A   Mostly Cloudy
6:51 AM 43.0 °F - 39.0 °F 86% 29.97 in 10.0 mi Calm Calm - N/A   Partly Cloudy
7:51 AM 46.9 °F - 41.0 °F 80% 29.97 in 10.0 mi Calm Calm - N/A   Overcast
8:51 AM 50.0 °F - 42.1 °F 74% 29.98 in 10.0 mi Calm Calm - N/A   Mostly Cloudy
9:51 AM 52.0 °F - 42.1 °F 69% 29.97 in 10.0 mi South 5.8 mph - N/A   Overcast
10:51 AM 55.0 °F - 41.0 °F 59% 29.96 in 10.0 mi South 6.9 mph - N/A   Mostly Cloudy
11:51 AM 55.9 °F - 41.0 °F 57% 29.96 in 10.0 mi Variable 4.6 mph - N/A Thunderstorm Mostly Cloudy
12:01 PM 55.9 °F - 41.0 °F 57% 30.02 in 10.0 mi SSE 10.4 mph - N/A   Overcast
12:23 PM 55.0 °F - 41.0 °F 59% 30.03 in 10.0 mi SSE 8.1 mph - N/A Thunderstorm Overcast
12:38 PM 55.9 °F - 39.9 °F 55% 30.03 in 10.0 mi Variable 4.6 mph - N/A   Mostly Cloudy
12:51 PM 52.0 °F - 42.1 °F 69% 29.98 in 10.0 mi WNW 13.8 mph - 0.00 in Rain Light Rain
1:04 PM 50.0 °F - 42.1 °F 74% 30.05 in 10.0 mi NW 12.7 mph - 0.01 in Rain , Thunderstorm Light Thunderstorms and Rain
1:19 PM 50.0 °F - 43.0 °F 77% 30.05 in 10.0 mi WNW 9.2 mph - 0.01 in Rain Light Rain
1:51 PM 54.0 °F - 41.0 °F 62% 30.00 in 10.0 mi NW 6.9 mph - 0.01 in   Partly Cloudy
2:51 PM 55.9 °F - 37.9 °F 51% 30.00 in 10.0 mi West 3.5 mph - N/A   Partly Cloudy
3:51 PM 57.9 °F - 39.9 °F 51% 29.98 in 10.0 mi SW 6.9 mph - N/A   Scattered Clouds
4:51 PM 60.1 °F - 39.0 °F 46% 29.98 in 10.0 mi WSW 11.5 mph 17.3 mph N/A   Clear
5:45 PM 57.9 °F - 39.0 °F 49% 30.04 in 10.0 mi WNW 3.5 mph - N/A Thunderstorm Mostly Cloudy
5:51 PM 59.0 °F - 39.0 °F 48% 29.99 in 10.0 mi North 6.9 mph - N/A Thunderstorm Mostly Cloudy
6:03 PM 57.9 °F - 39.0 °F 49% 30.03 in 10.0 mi North 9.2 mph - N/A   Mostly Cloudy
6:51 PM 57.9 °F - 36.0 °F 44% 29.97 in 10.0 mi WSW 4.6 mph - N/A   Partly Cloudy
7:51 PM 57.9 °F - 37.9 °F 47% 29.96 in 10.0 mi NW 8.1 mph - N/A   Partly Cloudy
8:51 PM 54.0 °F - 39.0 °F 57% 29.98 in 10.0 mi Variable 5.8 mph - N/A   Clear
9:51 PM 52.0 °F - 41.0 °F 66% 30.00 in 10.0 mi NNE 6.9 mph - N/A   Mostly Cloudy
10:51 PM 50.0 °F - 39.9 °F 68% 30.01 in 10.0 mi North 5.8 mph - N/A   Partly Cloudy
11:51 PM 48.0 °F - 41.0 °F 77% 30.03 in 10.0 mi NNE 4.6 mph - N/A   Clear